Weather History for North Platte, NE

Change the Weather History Date:

Wednesday, July 10, 2013

  Actual Average Record
Temperature  
Mean Temperature 73 °F 74 °F  
Max Temperature 85 °F 88 °F 106 °F (1954)
Min Temperature 60 °F 60 °F 46 °F (1999)
Degree Days  
Heating Degree Days 0 0  
Month to date heating degree days 4 0  
Since 1 June heating degree days 51 51  
Since 1 July heating degree days 4 0  
Cooling Degree Days 8 9  
Month to date cooling degree days 94 87  
Year to date cooling degree days 321 253  
Since 1 June cooling degree days 273 225  
Growing Degree Days 22 (Base 50)    
Moisture  
Dew Point 61 °F    
Average Humidity 67    
Maximum Humidity 90    
Minimum Humidity 44    
Precipitation  
Precipitation 0.03 in 0.09 in 3.15 in (1964)
Month to date precipitation 0.07 0.92  
Year to date precipitation 8.18 11.78  
Snow  
Snow 0.00 in 0.00 in 0.00 in (2002)
Month to date snowfall 0.0 0.0  
Since 1 June snowfall T 0.0  
Since 1 July snowfall 0.0 0.0  
Snow Depth 0.00 in    
Sea Level Pressure  
Sea Level Pressure 30.05 in    
Wind  
Wind Speed 7 mph (ESE)    
Max Wind Speed 18 mph    
Max Gust Speed 23 mph    
Visibility 10 miles    
Events Rain    
T = Trace of Precipitation, MM = Missing Value Source: NWS Daily Summary

Daily Weather History Graph

Daily Weather History Graph

Search for Another Location

Airport:

Trip Planner

Search our weather history database for the weather conditions in past years. The results will help you decide how hot, cold, wet, or windy it might be!

Date:

Astronomy

Jul. 10, 2013 Rise Set
Actual Time 6:19 AM CDT 9:16 PM CDT
Civil Twilight 5:46 AM CDT 9:49 PM CDT
Nautical Twilight 5:04 AM CDT 10:30 PM CDT
Astronomical Twilight 4:15 AM CDT 11:19 PM CDT
Moon 8:43 AM CDT (7/10) 10:25 PM CDT (7/10)
Length of Visible Light 16h 02m
Length of Day
14h 56m
Waxing Crescent, 5% of the Moon is Illuminated
Jul 10
Waxing Crescent
Jul 15
First Quarter
Jul 22
Full
Jul 29
Last Quarter
Aug 6
New

Hourly Weather History & Observations

Time (CDT) Temp. Heat Index Dew Point Humidity Pressure Visibility Wind Dir Wind Speed Gust Speed Precip Events Conditions
12:53 AM 73.0 °F - 61.0 °F 66% 30.06 in 10.0 mi East 5.8 mph - N/A   Clear
1:53 AM 71.1 °F - 61.0 °F 70% 30.06 in 10.0 mi East 6.9 mph - N/A   Clear
2:53 AM 66.0 °F - 60.1 °F 81% 30.05 in 10.0 mi East 5.8 mph - N/A   Clear
3:53 AM 63.0 °F - 59.0 °F 87% 30.06 in 10.0 mi ESE 3.5 mph - N/A   Clear
4:53 AM 62.1 °F - 57.9 °F 86% 30.07 in 10.0 mi Calm Calm - N/A   Clear
5:53 AM 61.0 °F - 57.0 °F 87% 30.08 in 10.0 mi Calm Calm - N/A   Clear
6:53 AM 62.1 °F - 57.9 °F 86% 30.09 in 10.0 mi Calm Calm - N/A   Clear
7:53 AM 68.0 °F - 60.1 °F 76% 30.08 in 10.0 mi ENE 9.2 mph - N/A   Mostly Cloudy
8:53 AM 73.0 °F - 61.0 °F 66% 30.09 in 10.0 mi East 10.4 mph - N/A   Clear
9:53 AM 75.0 °F - 61.0 °F 62% 30.12 in 10.0 mi Calm Calm - N/A   Clear
10:53 AM 75.0 °F - 62.1 °F 64% 30.14 in 10.0 mi WNW 9.2 mph - N/A   Clear
11:53 AM 75.0 °F - 62.1 °F 64% 30.10 in 10.0 mi SE 4.6 mph - N/A   Clear
12:53 PM 73.0 °F - 63.0 °F 71% 30.12 in 10.0 mi WSW 4.6 mph - 0.00 in Rain Light Rain
1:53 PM 73.0 °F - 64.0 °F 73% 30.04 in 10.0 mi Variable 3.5 mph - 0.03 in   Partly Cloudy
2:53 PM 82.0 °F 82.7 °F 61.0 °F 49% 29.99 in 10.0 mi East 11.5 mph - N/A   Clear
3:53 PM 84.9 °F 85.4 °F 62.1 °F 46% 30.00 in 10.0 mi South 8.1 mph - N/A   Clear
4:53 PM 84.0 °F 84.4 °F 61.0 °F 46% 30.00 in 10.0 mi ESE 11.5 mph - N/A   Clear
5:53 PM 82.9 °F 83.7 °F 62.1 °F 49% 29.99 in 10.0 mi ESE 12.7 mph - N/A   Clear
6:53 PM 82.0 °F 82.7 °F 61.0 °F 49% 29.98 in 10.0 mi ESE 11.5 mph - N/A   Clear
7:53 PM 79.0 °F - 62.1 °F 56% 29.96 in 10.0 mi ESE 9.2 mph - N/A   Mostly Cloudy
8:53 PM 75.0 °F - 64.0 °F 69% 30.00 in 10.0 mi ESE 8.1 mph - N/A   Clear
9:53 PM 70.0 °F - 63.0 °F 78% 30.00 in 10.0 mi ESE 8.1 mph - N/A   Partly Cloudy
10:53 PM 70.0 °F - 63.0 °F 78% 30.03 in 10.0 mi ESE 5.8 mph - N/A   Mostly Cloudy
11:53 PM 70.0 °F - 64.9 °F 84% 30.03 in 10.0 mi SE 6.9 mph - 0.00 in   Partly Cloudy